PRAETORIAN SDA_615 (65578 NORAD) Tracking and Keplerian Element Data

This shows tracking and keplerian element data for the satellite.

Feedback or suggestion? Click here.




ElementValue
Catalog65578
NamePRAETORIAN SDA_615
Epoch Orbit1384
Epoch Day353.52524035
Epoch Year2025
RAAN177.0914
Inclination81.3007
Eccentricity0.0009272
Argument of Perigee324.2289
Mean Anonmoly35.8246
Mean Motion13.85292953
Decay Rate1.06E-06
L11 65578U 25203P 25353.52524035 .00000106 00000+0 82668-4 0 9997
L22 65578 81.3007 177.0914 0009272 324.2289 35.8246 13.85292953 13842



Live tracking and technical data element details for PRAETORIAN SDA_615 (NORAD 65578). PRAETORIAN SDA_615 can be tracked NOW for your location showing map with azimuth and elevation plus other details from your city location.







IsCatalogInMostPopularTable: catalog: 65578, numindb: 6
Update: records affected: 1



GetName: 65578 PRAETORIAN SDA_615

Hit Count: updated at: Sat, 11 Apr 2026 21:44:10 GMT